Location: Brachbach
(49.1847°N, 9.7240°E)
Time: 04:57:56
(UTC+00:00)

STARS - Pass Details

Date: 19 March 2026
Orbit: 575 x 588 km, 98.2° (Epoch: 15 April)

Event Time Altitude Azimuth Distance (km) Brightness Sun altitude
Rises 01:01:29 0° 20° (NNE) 2,800 ? -37.5°
Reaches altitude 10° 01:03:44 10° 27° (NNE) 1,896 ? -37.4°
Enters shadow 01:04:09 13° 29° (NNE) 1,736 ? -37.3°
